Flag for Sweden Weather past 2 weeks in Gävle, Sweden

Now
36 °F

Passing clouds.


Feels Like: 36 °F
Forecast: 35 / 44 °F
Wind: 1 mph from Southwest

Location: Films Kyrkby

Current Time: Mar 28, 2015 at 3:12:48 AM

Latest Report: Mar 28, 2015 at 2:00 AM


Visibility: 25 mi

Pressure: 29.82 "Hg

Humidity: 96%

Dew point: 35 °F

Location of GävleLocation

Historic Weather in Gävle — Graph

°F

Gävle temperature yesterday

Maximum temperature yesterday: 41 °F (at 5:00 PM)
Minimum temperature yesterday: 35 °F (at 12:00 AM)
Average temperature yesterday: 38 °F

Past Weeks' High & Low Weather Summary

 TemperatureHumidityPressure
High55 °F (Mar 18, 1:00 PM)99% (Mar 13, 9:00 AM)30.94 "Hg (Mar 13, 9:00 AM)
Low17 °F (Mar 22, 12:00 AM)29% (Mar 18, 2:00 PM)29.35 "Hg (Mar 23, 8:00 PM)
Average35 °F75%30.30 "Hg
* Reported Mar 13 1:00 AM — Mar 28 1:00 AM, Gävle, Weather by CustomWeather, © 2015

Note: Actual official high and low records may vary slightly from our data, if they occured in-between our weather recording intervals... More about our weather records

Advertising

Gävle weather history for previous 24 hours

 ConditionsComfort  
Time TempWeatherWind HumidityBarometerVisibility
1:00 AM
Sat, Mar 28
36 °FOvercast.1 mph97%29.82 "Hg31 mi
12:00 AM37 °FOvercast.1 mph97%29.83 "Hg31 mi
11:00 PM
Fri, Mar 27
37 °FLight rain. Overcast.1 mph95%29.83 "Hg28 mi
9:00 PM39 °FLow clouds.1 mph96%29.81 "Hg28 mi
8:00 PM40 °FLow clouds.1 mph98%29.80 "Hg4 mi
7:00 PM40 °FFog.1 mph98%29.79 "Hg2 mi
6:00 PM41 °FFog.1 mph98%29.78 "Hg2 mi
5:00 PM41 °FLow clouds.2 mph98%29.76 "Hg1 mi
4:00 PM41 °FLow clouds.2 mph98%29.74 "Hg1 mi
3:00 PM40 °FFog.2 mph98%29.74 "Hg1 mi
2:00 PM39 °FFog.2 mph97%29.74 "Hg1 mi
1:00 PM39 °FFog.2 mph97%29.73 "Hg1 mi
12:00 PM38 °FLow clouds.3 mph96%29.74 "Hg3 mi
11:00 AM38 °FLight rain. Low clouds.5 mph95%29.74 "Hg4 mi
10:00 AM38 °FLight rain. Low clouds.5 mph95%29.74 "Hg5 mi
9:00 AM37 °FLight rain. Low clouds.6 mph95%29.75 "Hg5 mi
8:00 AM37 °FLight rain. Low clouds.5 mph95%29.76 "Hg5 mi
7:00 AM37 °FLight rain. Low clouds.5 mph95%29.77 "Hg4 mi
6:00 AM37 °FLight rain. Overcast.5 mph94%29.78 "Hg7 mi
5:00 AM36 °FLight rain. Overcast.5 mph94%29.78 "Hg7 mi
3:00 AM36 °FOvercast.6 mph90%29.80 "Hg19 mi
Weather by CustomWeather, © 2015

See weather overviewHow to use our weather pages